GFSSGP_925_rhum_108.txt.gz
RH
24 36 20 14 12 9 8 7 7 11 12 10 10 15 15 13 15 16 39 44 46 52 68 69 76 65 70 63 58 59 63 68 73 69 64 72 75 76 83 86 85 85 85 92 92 87 88 82 76
36 26 15 11 9 8 6 6 10 8 10 11 12 13 14 13 16 26 38 49 47 56 71 80 57 59 66 61 58 59 64 69 70 69 65 68 76 79 84 86 83 83 82 89 94 92 92 85 79
30 19 11 9 8 7 6 6 8 12 11 11 11 12 12 13 21 24 30 49 50 55 67 78 48 57 62 59 56 57 63 67 69 70 67 71 72 75 82 81 83 84 82 85 92 92 91 82 82
20 14 12 11 8 8 8 7 11 11 10 10 9 11 14 23 23 25 40 48 49 54 63 80 49 59 66 61 58 56 58 64 70 72 69 69 76 80 72 75 79 78 77 80 82 86 86 85 84
19 12 10 11 8 6 10 8 12 12 10 11 10 10 13 27 34 30 41 49 48 58 65 85 56 61 69 65 62 61 61 63 71 74 74 75 74 73 72 74 71 64 69 70 55 83 86 86 81
14 12 12 10 8 8 10 8 11 11 9 10 12 10 10 30 37 37 46 54 54 68 82 90 72 69 73 70 69 66 63 66 69 74 76 76 71 72 72 69 69 68 71 64 85 87 87 86 82
17 13 12 9 8 7 9 8 10 9 9 11 11 11 12 25 41 51 52 58 68 73 82 88 94 93 89 81 74 71 69 69 74 87 85 78 70 69 71 73 71 71 62 66 75 86 83 88 84
14 14 14 10 12 9 8 11 8 8 8 11 12 14 16 25 52 55 54 60 72 71 75 82 87 93 99 98 97 84 80 77 80 90 95 82 72 75 73 74 72 70 67 77 71 68 70 76 89
14 18 17 14 12 10 10 11 12 11 12 11 11 12 18 39 53 53 55 54 62 66 67 74 82 93 98 97 97 95 93 87 84 89 94 78 79 78 80 77 82 68 67 70 72 74 81 74 79
18 18 17 12 12 12 10 11 10 11 10 11 12 14 25 37 41 42 45 48 55 61 63 65 73 78 88 82 86 97 100 98 98 94 90 89 81 80 74 81 80 66 70 73 74 85 86 84 97
20 20 15 14 12 11 11 11 10 11 10 10 12 12 13 22 26 32 34 36 42 49 58 64 75 78 84 77 74 93 98 93 99 92 91 89 92 90 83 81 78 73 83 78 92 96 100 97 81
25 17 17 14 14 13 14 11 12 12 11 9 10 12 14 15 21 23 26 31 33 41 51 68 79 82 82 72 74 70 98 99 99 99 92 99 98 99 92 85 75 73 72 80 94 99 99 99 78
23 21 17 18 16 16 15 16 16 14 12 13 12 14 15 15 15 19 23 24 30 40 51 61 93 87 84 84 71 69 79 99 100 100 100 98 99 94 96 99 97 84 88 90 92 100 100 99 98
16 18 19 18 19 18 21 18 17 16 16 16 16 15 13 13 14 15 21 26 29 36 46 61 82 96 82 86 99 84 80 77 99 100 99 98 99 94 96 95 91 79 92 92 97 98 98 99 98
16 19 16 16 17 17 16 18 17 13 13 15 13 12 12 13 13 14 16 24 30 33 38 53 71 84 81 78 95 88 86 92 99 100 96 99 98 99 98 99 95 97 97 94 99 100 100 100 96
21 19 22 15 15 16 18 22 16 15 16 17 16 15 15 14 13 13 16 20 22 26 30 43 56 73 81 75 79 89 96 99 99 99 99 100 100 99 99 94 98 99 93 98 100 100 100 100 94
22 24 22 21 18 18 18 20 14 13 15 16 17 16 15 14 14 13 14 15 17 20 25 33 50 65 74 79 80 99 100 99 99 99 99 98 99 100 100 99 99 95 96 100 100 100 98 100 92
25 27 26 27 21 23 22 22 17 17 18 19 18 17 16 15 14 12 13 16 15 16 20 28 40 60 68 81 90 100 100 100 99 96 93 98 100 100 100 99 100 99 100 100 100 100 100 100 98
19 19 20 17 19 23 23 20 18 16 18 19 18 16 15 15 12 11 18 23 26 26 29 29 38 57 68 91 98 99 100 100 100 100 98 94 96 100 100 99 100 100 100 99 98 98 100 100 98
29 35 23 16 23 26 21 19 16 16 16 15 13 11 10 10 9 16 24 29 32 35 36 41 47 60 69 91 96 91 99 100 100 99 99 98 99 100 99 100 100 99 100 100 100 100 100 96 90
33 36 33 22 18 21 21 18 14 11 9 9 8 9 9 12 16 22 28 31 34 36 40 45 49 57 68 75 95 92 100 99 100 99 99 96 99 100 99 99 100 100 100 100 99 98 97 94 96
28 20 20 27 42 26 14 17 12 11 12 11 12 14 16 23 29 28 30 31 34 38 42 48 52 56 68 72 93 90 92 90 89 95 99 100 98 99 98 100 100 99 100 99 100 99 100 94 95
24 16 22 25 26 24 16 17 11 15 14 14 14 19 27 31 32 32 33 33 34 36 51 56 59 62 73 73 91 89 74 71 74 78 87 99 96 96 100 99 100 100 99 99 99 100 100 100 96
22 27 24 23 23 28 18 14 13 14 15 16 24 31 34 34 33 31 30 32 33 38 46 61 65 66 80 88 90 85 71 66 72 82 94 100 98 98 100 99 100 99 100 100 100 100 100 98 97
22 28 42 48 44 32 22 22 16 17 19 20 28 29 30 31 32 32 30 31 35 39 44 55 66 68 82 97 93 84 74 75 72 75 82 92 97 99 100 99 100 100 99 100 100 100 94 92 94
28 28 28 45 39 30 28 32 21 16 23 32 28 28 30 31 32 30 30 32 36 40 44 52 62 70 83 98 95 85 85 75 71 72 74 85 90 89 100 100 100 100 100 100 100 100 100 100 98
31 37 22 35 34 38 28 27 32 33 36 35 31 30 30 31 31 34 36 38 42 48 54 55 66 71 84 98 99 96 92 75 71 73 76 81 83 92 99 99 99 100 100 100 100 100 100 100 98
21 20 38 31 35 32 18 22 22 39 36 36 32 29 34 36 40 41 41 46 48 50 64 64 67 77 85 98 100 99 93 78 73 76 91 90 94 90 95 100 100 100 100 100 100 100 100 100 99
24 31 29 25 27 26 24 25 24 24 29 32 30 35 40 46 45 43 47 51 52 57 76 62 72 79 86 95 100 99 88 80 78 81 94 96 87 85 90 96 100 100 100 100 100 100 100 99 100
16 20 24 33 33 31 27 25 31 35 35 36 39 44 45 49 44 43 49 56 57 69 86 67 77 82 85 97 99 94 89 82 82 87 96 99 91 90 92 98 99 100 100 100 100 100 99 99 98

GFSSGP_925_rhum_111.txt.gz
RH
28 31 24 12 11 8 6 6 4 6 8 7 8 10 10 9 12 20 23 31 28 38 64 49 41 50 60 59 57 55 59 69 78 70 64 68 68 72 86 85 80 81 84 89 85 85 92 95 78
26 21 16 10 11 8 7 4 5 5 7 9 10 9 11 12 10 21 25 31 30 41 63 70 38 54 56 56 54 56 62 80 86 74 71 68 70 75 85 83 84 83 82 90 86 89 92 82 76
36 18 10 8 9 7 6 4 5 6 8 9 9 8 9 11 12 15 24 27 32 39 52 68 42 53 56 57 55 58 64 78 82 75 69 67 69 70 80 84 83 80 80 86 93 92 89 76 78
20 13 10 12 9 6 5 5 4 8 8 8 8 10 9 15 14 16 27 28 31 37 43 60 43 56 58 58 58 63 69 75 74 73 72 68 69 76 84 85 80 80 78 80 82 88 83 80 80
15 9 11 9 8 6 5 5 6 8 7 8 8 8 10 14 17 19 27 31 32 39 48 63 47 52 61 61 58 62 70 78 78 77 77 75 75 75 77 77 80 80 76 68 69 67 69 81 82
14 11 13 11 8 6 5 6 6 8 8 8 10 9 9 15 19 24 31 34 36 45 56 87 55 58 65 63 62 64 67 76 84 87 96 82 77 74 75 73 78 79 76 75 75 65 72 84 82
17 13 12 10 8 6 5 6 7 8 8 8 8 9 9 14 19 27 33 38 44 53 64 82 92 69 66 64 66 67 69 73 84 96 91 76 74 73 75 71 68 72 72 73 64 75 82 84 83
14 14 16 12 11 9 5 6 6 6 7 6 8 10 10 17 32 35 33 40 48 57 65 73 84 89 90 87 70 71 70 72 76 92 93 77 70 71 71 70 71 71 74 68 71 74 72 77 71
13 18 18 15 13 10 7 8 7 6 5 7 8 8 14 22 30 34 33 35 47 51 56 62 69 76 81 82 87 78 79 74 77 88 100 87 73 78 77 75 74 72 69 65 69 66 80 76 72
16 20 19 12 10 10 8 8 8 8 8 8 10 11 15 20 25 30 31 33 40 47 48 52 60 65 73 72 86 90 92 91 90 89 89 94 81 76 73 75 77 76 72 68 72 74 74 70 77
17 21 16 13 11 10 9 9 8 9 9 7 10 10 11 14 18 23 23 24 33 38 40 42 56 63 67 58 63 68 83 85 87 85 84 80 78 75 76 80 83 78 80 75 79 84 88 96 94
20 17 16 15 13 12 12 11 11 9 10 7 6 8 10 11 13 15 19 20 21 29 36 41 47 61 67 57 56 53 81 77 80 80 85 84 86 88 86 80 85 84 76 68 78 96 96 100 99
17 17 16 15 14 14 13 14 13 12 9 9 9 8 10 12 11 12 14 15 16 20 28 37 48 59 67 70 54 55 74 92 74 83 79 82 80 84 87 81 79 75 71 71 87 96 99 99 99
14 16 16 15 16 15 17 15 14 13 12 12 12 12 10 11 10 10 12 14 15 16 21 36 46 65 67 68 63 57 59 76 93 89 82 89 82 84 88 88 86 82 74 86 96 93 98 99 100
14 16 15 15 15 17 16 19 18 14 12 14 14 13 12 10 9 10 10 12 15 16 18 33 48 70 76 67 68 66 59 65 72 90 90 94 93 89 89 93 92 86 83 87 95 97 98 100 98
18 17 20 14 14 14 16 21 14 12 12 13 12 12 12 11 10 10 10 11 12 17 19 24 39 56 78 68 65 77 65 66 64 78 83 97 100 93 90 84 96 92 93 92 98 99 99 100 99
22 24 22 18 12 13 15 19 14 11 13 14 14 13 12 12 11 12 11 11 12 14 17 21 32 46 61 71 65 67 68 69 70 73 90 99 99 94 98 78 84 89 97 98 100 100 99 100 100
27 25 21 19 14 14 16 18 15 12 13 13 14 14 13 13 13 12 12 12 12 13 15 19 25 39 56 62 68 63 71 73 74 78 88 94 98 99 91 86 85 96 99 100 100 99 100 99 100
20 22 22 19 14 20 22 20 16 14 14 16 16 16 15 14 12 12 12 15 16 18 19 19 21 28 46 56 60 66 90 86 86 70 73 76 83 94 91 90 88 98 100 99 99 100 100 100 100
21 24 29 20 17 19 19 20 16 14 14 13 14 15 15 13 12 12 11 15 21 23 24 25 27 29 35 48 54 77 93 91 94 85 76 77 85 86 90 96 99 98 100 100 99 100 100 100 100
20 24 28 23 20 23 19 21 17 12 11 11 12 12 11 10 9 10 12 21 24 26 27 29 30 31 36 47 62 88 90 89 94 97 89 88 86 88 86 96 100 100 99 99 99 99 99 97 100
20 20 23 27 33 44 28 35 18 14 10 10 10 9 8 8 9 12 18 21 24 28 31 38 35 34 38 48 62 85 84 84 86 90 88 86 88 88 90 99 99 100 100 100 99 100 98 95 94
20 21 28 29 30 28 24 31 20 11 10 10 10 10 12 15 19 19 21 22 22 24 30 41 45 42 41 46 59 83 85 77 71 78 80 88 92 94 93 100 100 100 100 99 98 99 100 100 96
18 22 23 23 26 34 24 20 17 13 13 9 9 13 19 22 22 20 20 22 21 25 32 38 44 47 47 49 60 80 84 71 60 64 70 83 93 96 95 99 99 99 100 99 99 100 100 99 97
24 34 53 54 46 40 20 20 15 11 12 12 17 21 23 23 23 23 21 21 23 26 31 36 36 45 50 58 63 87 85 74 58 61 69 79 85 97 100 100 99 99 100 100 100 100 100 100 99
27 27 54 60 52 36 19 26 16 11 12 15 19 20 22 23 24 22 23 27 29 30 34 40 44 41 49 57 74 84 89 80 66 65 68 74 77 85 99 99 99 99 100 100 100 100 100 100 100
26 26 21 35 36 44 30 20 22 15 16 23 21 19 20 21 22 26 29 34 38 40 41 40 51 49 46 57 80 86 90 83 69 64 64 68 72 74 92 98 100 99 99 99 100 100 100 100 99
20 17 30 30 37 34 21 24 25 24 25 25 22 23 22 24 28 31 32 37 42 44 47 48 61 55 48 60 82 90 92 82 72 65 69 67 73 78 94 98 100 100 100 100 100 100 100 100 100
18 23 22 20 21 27 29 26 24 25 24 27 23 23 25 28 33 32 34 39 44 50 52 59 75 62 49 71 84 91 93 82 75 68 73 72 79 81 82 97 98 100 100 100 100 100 100 100 100
11 18 20 25 25 21 28 54 20 23 23 24 25 27 29 34 51 43 41 43 46 52 58 66 83 83 68 81 91 98 95 89 76 74 78 78 79 77 78 84 99 100 100 100 100 100 100 100 100

GFSSGP_925_rhum_114.txt.gz
RH
15 22 29 21 17 13 10 8 5 4 6 6 7 7 9 10 18 30 25 30 42 40 23 33 42 48 53 56 58 59 61 67 70 67 63 64 60 62 69 78 79 79 78 80 81 83 83 74 69
27 21 18 17 16 13 9 6 5 4 6 7 8 9 10 12 17 22 29 30 45 36 27 30 36 44 50 54 56 57 61 65 74 72 68 65 64 64 68 80 77 78 80 79 82 84 86 77 74
18 27 19 15 14 14 10 5 4 6 8 8 8 7 8 9 13 19 27 29 42 52 53 31 37 44 51 54 55 59 63 70 81 77 72 66 64 66 73 82 79 80 82 79 82 86 84 78 77
34 26 15 16 13 8 8 6 4 6 7 7 7 9 7 14 12 23 25 29 37 45 56 33 40 43 49 52 54 58 65 83 94 81 77 69 69 72 76 82 81 82 81 76 85 71 59 72 76
28 14 17 13 10 9 7 5 4 5 7 7 7 8 10 13 14 23 25 29 35 42 51 39 37 39 49 53 55 58 65 78 82 80 78 75 76 74 73 81 82 78 73 72 70 70 64 74 78
23 16 20 16 11 8 6 5 5 6 7 7 8 8 11 12 15 24 27 30 36 48 58 46 42 39 50 54 57 60 64 76 80 81 81 81 74 72 74 82 79 77 77 75 72 76 70 76 78
23 18 19 15 12 10 7 5 6 6 7 7 7 9 11 16 17 26 29 34 40 56 71 51 49 50 55 55 58 61 60 69 77 82 96 92 75 73 69 78 73 70 76 71 71 69 71 78 80
18 18 18 14 13 11 7 6 6 6 6 6 6 8 12 15 21 25 32 38 46 56 74 71 70 60 59 60 62 61 60 64 74 85 98 94 82 77 72 69 69 71 71 72 79 66 73 74 75
16 24 23 19 16 13 9 8 7 6 6 5 6 8 18 22 30 28 33 38 50 58 66 80 87 83 75 69 66 67 65 65 68 80 92 90 87 83 80 73 72 70 72 73 69 69 75 72 72
20 24 22 15 13 13 10 9 8 8 7 7 6 8 14 20 25 29 29 37 48 54 58 68 73 79 83 80 86 72 71 70 70 74 86 79 86 83 80 78 75 73 74 75 68 73 68 74 74
18 23 18 15 12 12 11 10 8 8 9 8 9 10 11 14 18 27 26 28 40 48 50 52 62 68 74 67 78 90 92 88 85 87 86 86 85 80 78 79 79 76 78 71 76 70 73 80 79
19 17 17 15 13 13 12 10 10 10 9 8 7 10 10 13 17 20 22 24 29 38 42 43 55 61 68 65 70 74 79 85 87 83 80 88 85 81 80 80 82 84 83 80 80 73 84 89 91
16 16 15 14 14 14 13 14 13 12 10 10 8 8 11 13 12 13 15 18 20 28 36 39 46 59 68 62 57 57 72 77 81 79 77 77 87 86 85 86 86 87 88 81 78 87 87 91 96
14 15 15 14 14 14 16 15 14 13 12 12 12 10 10 11 12 12 12 14 15 17 29 37 41 53 64 70 60 54 74 75 71 77 77 84 86 83 82 83 85 84 82 78 77 84 90 95 97
16 19 17 15 15 16 15 18 18 14 13 13 13 12 12 12 11 12 11 13 14 14 16 37 44 52 64 70 66 66 61 78 71 82 79 80 81 84 85 86 87 84 81 78 82 84 92 94 96
18 18 24 17 14 14 15 24 17 14 14 15 14 14 14 14 12 11 11 11 13 14 15 32 44 54 61 68 70 66 63 63 82 83 79 82 87 87 86 84 85 87 86 87 91 92 91 96 98
22 26 24 21 14 14 16 20 16 14 14 15 14 14 14 14 13 12 11 11 10 11 14 17 40 58 61 67 71 69 68 66 66 80 83 82 86 88 86 88 87 86 88 92 94 93 86 97 100
29 27 23 22 17 15 16 17 14 13 12 14 14 14 14 13 13 12 11 11 11 11 12 18 29 50 66 72 68 71 76 72 68 68 74 86 90 95 90 87 83 85 88 92 97 96 98 100 99
22 21 23 20 16 18 19 17 14 12 14 14 15 15 15 16 14 13 12 12 14 15 17 17 21 39 56 68 76 74 70 74 70 71 72 84 92 96 91 88 87 83 88 94 92 100 99 100 100
20 21 22 19 17 25 28 30 18 15 15 15 15 15 16 15 14 14 14 16 17 18 22 22 22 22 40 59 64 67 69 72 73 75 74 81 88 94 93 96 84 79 84 94 97 100 100 100 100
18 21 23 23 31 44 32 37 21 16 15 14 14 15 15 16 16 15 16 22 21 24 26 27 27 27 29 29 50 57 76 86 86 82 73 79 81 82 86 93 86 80 86 90 98 100 100 100 100
19 14 18 22 35 73 34 40 23 18 17 14 13 13 15 15 14 12 17 28 24 25 27 32 35 35 33 33 39 66 88 89 90 92 87 82 80 81 84 84 90 98 87 97 97 97 99 99 99
14 14 17 22 34 48 41 40 29 22 24 22 14 12 13 14 13 14 22 22 22 24 27 33 39 43 41 39 43 71 82 79 82 90 91 84 81 83 85 85 95 100 100 97 99 99 100 99 96
11 20 24 28 35 54 40 37 31 25 24 22 13 10 14 20 24 23 22 21 21 22 30 34 36 37 42 44 44 66 81 80 80 85 90 90 90 88 85 84 88 99 100 100 99 100 100 99 97
19 27 50 64 56 58 32 35 30 17 14 15 13 12 25 26 26 24 23 22 28 31 33 36 37 39 40 45 48 57 74 84 79 75 82 83 93 94 93 96 97 99 99 98 99 100 100 100 97
26 28 50 55 55 43 26 34 25 16 12 11 17 24 25 26 29 26 28 36 38 40 43 46 48 48 44 50 51 54 65 86 79 76 71 83 87 94 92 100 100 96 99 99 100 100 100 100 100
27 35 30 41 49 54 30 25 18 13 18 20 24 26 27 25 27 30 33 39 42 43 46 51 53 54 54 56 59 61 68 81 80 76 74 78 76 83 88 97 100 100 99 100 100 100 100 100 100
24 25 43 40 52 61 74 29 37 20 26 28 32 23 23 23 30 32 37 42 41 44 49 54 56 59 65 75 72 70 73 74 84 84 73 70 73 76 89 98 100 97 96 100 99 99 100 100 100
32 28 28 29 32 38 50 64 37 25 31 54 24 26 44 46 46 44 42 42 46 49 51 56 62 70 77 83 89 74 80 79 87 86 77 69 72 73 95 99 99 100 94 100 99 99 100 100 100
18 23 25 40 36 26 33 44 41 37 25 26 58 49 56 51 49 47 48 49 51 53 55 60 67 74 85 90 86 81 83 80 89 87 78 72 73 77 85 92 93 95 100 99 100 100 100 100 100

GFSSGP_925_rhum_117.txt.gz
RH
7 11 20 32 42 29 25 18 12 10 7 9 10 12 13 18 31 53 59 38 32 27 38 49 47 52 58 59 60 60 63 65 65 62 58 57 58 58 60 64 71 76 78 78 78 80 77 69 66
9 22 27 32 34 32 25 14 13 8 10 10 10 10 14 26 30 44 55 44 16 20 36 44 44 46 53 56 58 58 59 64 67 65 61 60 60 60 64 71 75 81 79 79 78 76 68 66 67
21 23 37 39 35 30 24 12 9 10 10 9 10 8 9 24 33 34 43 24 17 24 32 33 36 43 51 53 55 54 58 64 70 70 65 64 63 66 72 76 76 82 80 78 79 70 69 63 64
23 41 45 29 30 22 16 12 9 9 10 8 8 10 13 19 28 36 41 22 25 38 30 30 37 45 50 52 53 55 60 66 75 73 70 67 68 70 73 79 79 83 82 77 76 75 76 70 68
29 43 35 30 24 16 12 10 9 8 9 10 8 9 19 27 28 36 37 37 43 48 32 31 38 44 49 50 53 58 60 65 73 76 74 70 70 68 73 78 80 79 76 72 72 72 65 71 69
43 34 36 33 23 16 12 10 8 8 9 11 9 10 18 28 29 32 38 40 43 49 31 35 40 42 46 47 51 58 60 65 71 74 76 75 70 67 68 78 81 79 79 73 74 72 65 69 72
46 42 38 32 25 19 13 10 10 10 9 10 10 11 18 28 28 30 36 39 45 50 39 41 45 46 47 45 49 54 62 67 68 72 76 76 71 70 70 76 79 72 71 71 73 70 65 68 70
35 38 41 32 25 20 12 10 8 7 8 7 8 11 13 24 29 32 41 43 50 56 51 44 51 46 48 50 50 52 56 62 58 73 90 85 77 75 72 72 75 72 73 74 75 70 64 69 73
25 38 39 35 28 22 14 14 10 6 7 6 7 11 30 32 32 41 48 61 68 71 64 48 52 48 50 51 54 55 58 62 62 80 88 88 80 78 78 74 71 73 73 74 74 68 65 74 73
32 39 35 25 21 20 16 14 13 9 8 8 9 26 24 30 33 44 53 62 64 77 76 65 55 51 54 57 56 58 60 62 67 74 85 88 78 78 78 74 74 74 74 74 74 66 70 73 70
24 36 28 24 21 19 18 16 13 11 12 10 12 24 26 24 37 38 46 57 60 60 67 74 67 60 59 65 60 61 63 64 67 68 75 82 82 81 82 75 76 74 75 77 78 70 72 66 75
24 21 22 22 20 19 20 17 17 16 12 10 10 18 22 24 29 40 37 49 58 61 59 66 69 73 71 81 77 69 65 68 68 70 76 79 80 83 85 82 80 77 78 78 72 72 69 73 74
18 18 17 17 19 18 17 18 19 18 14 14 12 12 16 22 24 21 28 32 52 56 56 55 60 69 72 70 74 69 70 71 73 78 80 88 87 81 80 81 81 81 81 81 79 76 72 75 81
20 18 17 16 17 17 19 18 19 16 16 14 14 15 13 19 18 16 14 15 28 51 52 50 56 60 66 63 67 67 76 72 77 77 78 77 87 89 85 82 84 83 83 83 84 83 80 84 85
20 25 21 20 17 18 17 23 21 17 16 18 16 16 16 15 15 16 12 12 11 25 47 49 52 58 60 61 62 64 67 73 72 79 76 74 78 89 86 84 85 86 85 86 85 86 85 89 84
14 19 29 21 20 18 20 25 19 18 18 18 18 18 16 16 16 13 12 11 10 11 24 44 53 60 60 64 59 62 64 72 72 78 80 78 81 84 86 84 85 87 86 84 84 86 89 92 90
16 27 26 25 20 20 21 24 18 19 17 18 18 17 17 16 18 15 13 12 10 10 12 39 51 57 61 63 64 58 68 71 76 71 74 79 84 89 90 88 86 86 86 84 83 85 88 96 98
27 26 26 30 22 20 23 22 20 18 18 18 18 17 17 16 15 14 13 12 12 10 13 23 48 49 54 64 70 70 61 68 74 77 78 75 80 81 90 91 86 85 86 89 90 91 97 95 99
26 30 25 25 21 23 23 21 18 18 16 17 18 17 18 16 15 14 14 12 12 13 14 25 65 67 72 73 72 75 72 68 67 72 72 83 79 80 79 90 81 86 87 91 94 97 90 100 100
28 28 31 24 21 25 24 32 20 24 19 15 16 20 20 22 20 14 14 17 18 22 23 31 59 69 71 69 69 75 72 74 73 70 70 76 86 84 81 84 82 89 93 86 87 89 99 100 94
28 27 27 30 41 44 40 42 39 28 20 18 15 16 20 22 21 20 27 28 26 27 26 26 31 55 66 60 66 76 75 78 81 75 74 78 80 79 81 84 86 89 87 81 88 88 94 100 100
31 21 20 23 29 67 43 56 40 33 25 21 19 16 19 20 20 18 33 38 30 28 30 33 34 36 41 47 66 69 71 82 78 78 76 78 82 84 74 83 87 91 91 80 77 83 92 99 97
27 22 19 20 40 70 58 68 46 30 28 24 22 21 16 18 16 23 32 33 27 31 35 37 38 40 40 41 44 62 68 70 75 84 82 78 71 82 91 87 84 91 92 90 76 78 100 99 100
20 22 23 42 64 94 55 55 48 33 27 23 21 19 18 20 27 29 30 39 49 47 47 47 46 45 43 44 48 56 69 71 85 88 90 85 79 80 92 86 85 86 87 94 95 89 99 97 99
21 22 65 91 90 79 41 48 42 28 22 21 20 19 28 26 29 34 46 51 51 54 51 51 50 50 45 48 52 51 69 67 81 80 88 94 78 83 92 90 94 93 92 98 99 96 100 98 99
25 45 79 91 78 58 32 52 40 26 22 21 18 30 34 34 39 48 50 50 50 55 54 53 53 54 53 56 59 61 60 82 80 78 81 87 86 86 85 96 98 96 93 94 99 95 99 100 99
36 42 39 61 53 69 43 30 24 23 25 26 30 33 38 41 47 48 48 49 53 55 56 56 58 60 60 61 64 66 74 72 82 78 73 75 90 93 85 89 97 97 92 91 94 99 100 100 100
29 29 64 77 88 86 78 43 42 38 43 52 74 60 56 54 52 53 55 56 56 56 58 60 64 68 70 73 80 84 87 83 90 72 69 67 86 95 96 91 98 100 98 91 92 100 99 100 100
40 38 48 73 53 66 95 87 45 49 41 68 80 82 75 61 59 58 57 58 61 63 64 67 72 74 77 81 86 89 88 94 91 76 66 74 88 92 89 83 94 100 100 100 92 100 100 100 100
43 49 38 57 60 46 69 89 61 71 67 71 74 70 68 60 61 60 60 63 65 68 70 75 79 82 85 86 89 91 91 97 86 76 69 81 85 84 80 82 94 97 100 99 100 100 100 99 100

GFSSGP_925_rhum_120.txt.gz
RH
11 12 21 32 35 37 32 26 16 13 12 8 12 14 21 25 31 42 64 56 39 38 52 56 55 57 57 56 58 59 61 62 59 56 54 53 53 58 62 65 70 72 73 74 74 74 69 69 67
11 27 30 39 45 39 31 21 17 13 10 10 11 12 22 39 42 69 65 57 41 31 46 51 54 59 57 57 58 60 61 63 63 60 58 58 58 59 62 70 76 77 77 77 74 72 68 65 67
15 26 35 43 48 40 28 17 12 11 10 12 10 9 19 38 52 58 45 44 41 35 43 50 55 56 53 55 57 58 61 63 64 63 62 60 62 62 66 76 80 79 80 78 78 74 70 69 69
11 43 52 48 43 30 22 16 14 13 10 11 10 10 21 31 45 41 40 35 34 37 43 49 54 49 48 50 55 56 59 64 67 67 65 64 64 65 70 74 81 79 76 76 75 72 69 68 68
28 54 59 46 40 27 19 16 15 13 10 9 10 10 24 31 37 35 29 29 24 37 42 46 50 47 47 49 50 52 58 65 69 69 67 64 64 65 72 75 78 78 76 76 75 69 67 70 69
48 49 49 53 36 22 18 15 12 12 11 10 10 20 26 38 55 52 32 26 20 31 44 50 50 47 46 45 47 51 53 62 71 71 68 64 64 67 73 75 77 78 73 74 76 66 63 70 69
52 56 53 44 32 28 21 15 13 14 12 13 11 17 36 48 52 40 32 28 29 31 40 49 52 50 45 44 46 49 56 62 69 72 69 65 64 67 70 74 76 77 74 74 74 66 64 69 70
49 53 54 47 38 33 20 17 11 13 10 9 10 21 44 38 48 51 52 57 45 40 41 43 49 52 51 51 48 48 53 61 68 69 71 70 67 66 69 71 76 77 74 72 71 66 59 66 68
24 50 53 50 41 33 22 22 16 13 10 8 9 11 27 36 58 80 85 84 68 54 43 43 49 54 56 52 53 52 54 61 66 72 73 76 76 74 73 73 77 76 76 74 72 68 60 65 74
33 49 46 32 32 30 24 22 20 15 15 11 30 32 30 49 62 74 82 95 91 77 58 43 47 54 62 59 60 56 62 66 63 72 66 78 80 79 80 74 77 76 77 74 72 73 62 66 74
26 35 33 30 29 26 26 24 20 20 20 14 23 38 41 48 53 62 70 81 76 65 66 53 51 55 59 61 59 60 60 65 66 69 69 65 83 80 82 80 80 78 79 77 77 76 64 64 72
21 15 19 23 23 27 28 24 23 21 19 15 13 33 39 45 52 56 62 68 81 72 59 58 49 53 59 60 58 56 58 59 62 66 74 70 81 82 81 82 80 79 79 77 77 75 66 67 67
31 22 16 15 18 20 21 24 24 21 18 16 15 20 26 39 44 47 52 57 62 74 64 55 51 43 49 58 57 55 57 56 56 60 66 71 74 80 81 81 80 80 79 77 78 77 70 67 68
19 19 22 20 17 16 20 20 22 20 20 19 18 17 18 18 30 40 46 56 64 61 57 58 57 50 42 49 53 54 56 54 57 60 62 66 73 75 83 86 84 82 80 79 78 76 73 71 71
21 23 17 18 22 22 18 22 22 17 19 20 18 19 18 18 22 26 34 47 56 60 53 65 60 66 64 64 68 61 64 61 60 62 64 67 77 85 82 85 85 84 83 83 83 82 81 79 79
30 28 30 16 18 21 23 30 19 16 19 19 21 20 20 18 17 14 16 19 44 52 58 60 72 73 70 69 66 66 67 66 68 71 66 68 73 86 90 88 85 83 83 86 90 90 90 86 84
34 40 31 24 16 22 26 29 20 18 20 19 20 21 20 21 19 14 12 12 13 24 50 56 62 69 70 71 64 62 66 72 74 72 73 75 73 78 88 91 88 86 88 89 90 91 90 92 92
38 36 32 28 17 22 24 28 21 21 21 19 20 22 23 21 20 17 13 11 11 11 19 46 56 58 68 71 73 72 72 74 71 74 76 79 77 77 86 89 89 88 89 91 92 90 95 94 100
45 44 41 30 24 26 19 25 22 21 22 22 21 23 22 21 17 16 14 12 13 12 13 34 53 60 76 82 80 81 79 78 78 77 76 77 80 81 91 92 88 88 89 90 89 90 92 100 100
38 55 64 39 25 25 26 23 22 20 20 19 20 23 22 21 20 18 16 17 16 14 15 33 56 70 76 79 82 79 78 69 70 77 78 76 78 83 86 91 94 87 89 92 93 94 100 100 99
49 47 51 59 29 24 48 50 38 33 22 20 20 20 20 22 21 20 18 27 24 28 37 50 65 73 78 79 80 72 72 81 83 79 76 80 82 81 83 82 77 76 83 91 90 90 90 99 100
94 40 45 53 38 47 55 73 47 36 35 25 20 21 20 23 24 26 40 48 40 42 48 65 82 83 82 81 82 78 66 78 76 81 77 70 76 83 85 81 79 76 88 92 95 82 84 93 99
89 56 46 51 34 36 48 84 68 40 36 32 24 23 21 21 23 40 54 58 60 54 52 50 49 53 56 55 61 79 80 80 74 77 83 81 74 77 79 84 83 78 82 96 92 87 82 86 94
63 55 53 39 41 53 42 72 66 39 31 28 23 22 21 42 49 50 51 54 58 56 47 45 44 48 48 54 58 62 76 87 88 87 89 86 82 79 82 85 79 76 79 87 94 89 76 78 90
62 58 72 72 73 83 58 82 56 37 28 26 27 30 35 43 49 54 57 60 62 62 59 56 50 57 51 48 52 52 55 60 83 91 84 89 87 85 85 85 95 91 87 86 91 92 93 91 88
65 51 58 77 76 74 60 69 47 31 26 25 35 51 53 53 51 58 61 64 66 68 69 66 65 66 58 54 56 58 56 58 65 80 94 83 74 68 71 72 99 98 91 92 91 87 95 100 96
40 48 31 56 71 66 52 36 26 46 52 39 56 58 64 62 66 67 65 67 69 72 76 74 70 70 66 63 59 57 59 60 76 75 97 96 78 71 71 77 84 87 90 93 95 95 99 100 98
53 37 61 73 86 78 86 61 82 91 91 79 79 75 72 68 68 67 67 68 70 73 76 77 77 78 76 69 71 75 69 71 76 82 84 100 88 75 82 85 87 100 95 95 99 100 100 100 100
64 56 74 72 83 92 94 99 80 80 89 90 83 78 76 73 72 70 69 69 71 75 77 80 82 83 80 78 81 80 76 81 87 89 97 92 97 77 84 84 98 100 100 100 100 100 99 100 100
55 71 69 78 94 89 84 96 88 83 84 84 80 80 79 75 74 71 70 72 74 79 82 85 86 88 90 90 90 92 91 92 94 91 100 91 94 75 74 92 100 100 100 100 100 100 100 100 100

GFSSGP_925_rhum_126.txt.gz
RH
16 13 23 29 27 39 28 19 24 15 12 11 11 13 25 35 42 51 64 59 39 44 53 54 57 57 57 56 54 50 47 49 56 64 69 70 69 68 72 73 77 82 74 75 76 73 71 70 72
15 29 27 45 29 19 12 26 21 17 13 15 13 19 27 33 43 70 74 62 41 42 52 55 58 59 59 59 58 54 50 50 52 56 61 64 64 68 73 75 74 73 75 73 70 73 71 69 70
27 30 31 48 46 17 13 16 21 16 17 14 13 11 23 32 48 67 60 58 50 48 53 56 60 61 61 60 60 57 53 52 52 55 57 58 62 66 73 73 73 73 76 72 68 64 64 68 73
24 34 48 45 49 40 20 16 17 20 15 13 12 13 13 38 49 57 58 55 49 50 54 59 62 61 60 61 62 60 56 53 54 55 56 58 63 64 75 75 73 72 75 67 64 63 67 70 74
41 56 38 62 52 38 32 24 22 22 19 16 13 15 15 31 48 52 62 56 46 52 58 64 64 60 60 61 63 63 60 57 56 56 56 58 63 68 76 79 76 75 70 63 63 66 67 72 77
45 62 68 59 46 32 29 23 22 20 18 17 15 16 18 46 49 66 82 68 57 53 61 65 65 61 61 62 64 64 64 60 58 57 57 58 62 69 75 80 79 78 68 63 64 67 67 72 78
47 67 67 58 45 35 29 21 21 22 20 18 13 19 24 57 67 64 82 76 65 59 66 68 65 60 58 60 64 64 64 63 61 59 59 60 62 65 72 76 78 77 71 63 63 69 69 72 77
60 62 67 58 47 44 29 23 18 23 22 16 12 23 25 50 58 78 78 76 68 64 68 66 67 65 58 61 65 65 63 64 63 62 61 62 64 66 68 74 78 77 74 68 61 62 68 72 77
43 60 80 51 46 38 26 28 25 22 21 22 15 18 24 39 69 79 78 77 79 76 78 74 70 68 69 67 65 64 64 66 67 67 66 66 69 71 71 73 76 75 73 72 69 64 65 74 78
34 55 36 41 36 38 35 36 34 30 30 29 27 21 24 77 83 81 82 84 91 91 85 77 73 83 96 94 65 68 74 79 76 75 73 71 70 72 73 75 78 77 76 74 73 72 67 72 77
25 35 26 26 28 38 40 34 32 36 33 31 30 26 37 83 83 77 73 66 67 78 82 83 87 96 98 99 100 97 94 91 83 80 77 75 75 76 79 79 83 83 81 79 77 77 72 69 71
40 26 25 29 26 24 24 25 22 20 21 26 26 25 29 72 86 75 70 66 67 64 71 89 95 98 97 96 100 100 99 100 92 77 79 79 80 81 80 80 82 84 83 82 80 78 74 70 70
31 28 28 26 25 23 20 21 23 21 17 16 21 22 26 49 73 73 66 65 67 75 83 79 92 97 99 93 100 100 100 99 100 95 80 78 81 80 81 79 80 82 85 84 83 80 78 74 73
30 33 32 28 27 24 23 19 19 16 18 18 17 18 22 26 50 65 68 69 71 68 73 80 69 71 88 88 95 99 100 98 97 94 83 80 82 94 82 81 81 81 83 82 83 82 79 77 72
34 41 29 23 23 21 20 20 22 15 16 18 17 16 18 24 26 48 59 67 69 73 66 65 73 75 71 76 76 90 95 98 89 82 87 80 83 97 91 78 82 80 81 82 86 87 86 83 80
42 41 51 19 18 17 17 17 13 17 20 22 19 19 17 18 24 29 50 62 67 76 80 58 73 69 64 61 60 55 54 82 92 96 89 88 86 85 76 75 81 81 83 82 86 88 89 89 86
50 45 44 32 20 21 22 24 16 20 20 21 19 16 18 18 21 20 36 56 60 68 77 81 71 67 60 64 74 71 60 66 66 68 66 72 75 71 75 78 79 82 86 86 87 89 89 92 91
39 47 43 42 31 29 35 38 31 27 22 22 20 20 18 18 18 18 18 35 49 60 68 72 80 72 67 83 86 86 83 65 62 60 58 58 63 66 76 80 79 83 91 90 91 91 92 91 90
44 49 53 44 36 42 44 44 38 33 31 29 25 20 20 17 17 17 17 18 28 50 64 70 79 83 94 93 94 100 95 90 73 62 58 57 62 64 73 79 86 88 90 90 92 95 99 100 99
56 62 62 49 43 46 48 49 43 38 35 32 29 23 18 19 16 18 19 20 20 36 58 66 68 79 88 92 91 88 93 97 95 83 70 71 64 67 68 77 83 92 95 95 93 94 100 100 100
61 66 59 60 49 48 60 70 61 44 36 32 28 22 18 19 18 23 23 23 21 24 38 60 66 74 81 90 97 92 94 94 100 99 92 75 78 78 73 77 83 86 95 96 86 88 99 100 100
69 47 49 56 75 94 64 84 52 42 37 31 26 21 20 24 18 21 25 63 63 47 26 29 61 75 89 93 94 93 96 97 98 100 99 85 80 80 76 83 82 87 88 95 85 87 83 91 99
68 53 69 70 93 91 62 90 48 38 43 37 30 29 26 23 20 64 73 72 78 86 83 74 76 90 96 92 91 95 93 90 94 97 99 99 99 99 90 85 83 89 89 87 88 87 98 91 96
48 72 77 84 89 97 53 68 54 46 36 45 64 81 78 73 72 70 67 70 73 75 76 78 84 88 95 99 100 94 95 96 94 76 54 56 65 95 78 93 93 90 89 88 82 79 77 80 95
70 72 86 83 95 65 47 86 56 41 41 37 64 92 85 81 82 81 79 78 78 83 79 76 76 77 68 64 65 66 66 72 84 89 60 55 72 97 88 99 100 100 97 94 88 83 75 79 88
71 93 79 91 63 64 54 86 72 83 87 84 87 87 86 86 84 84 83 82 82 83 84 84 83 80 73 73 67 61 58 57 59 65 74 77 91 99 88 96 100 100 100 99 98 98 81 86 92
82 88 61 69 65 87 74 65 74 83 90 92 91 87 90 87 86 86 85 83 85 87 89 89 88 87 81 75 72 66 62 56 55 51 51 54 59 73 95 100 99 96 100 100 96 96 91 89 98
78 69 83 71 95 94 84 93 95 96 95 93 97 95 90 86 86 83 83 82 86 89 91 93 92 92 92 86 78 73 68 64 62 59 59 59 58 63 64 98 100 100 97 100 100 100 92 99 100
86 90 92 97 96 96 95 97 100 100 97 95 95 98 93 91 88 85 80 83 85 86 90 90 91 90 92 90 85 84 82 76 66 63 67 73 75 75 81 77 91 100 99 100 99 99 100 100 100
70 95 96 99 92 90 95 98 100 100 100 100 98 95 86 85 92 86 86 79 85 87 89 90 92 94 96 90 88 86 88 88 88 87 83 81 84 85 91 99 99 95 100 97 100 99 100 100 100

GFSSGP_925_rhum_129.txt.gz
RH
16 14 27 26 12 20 14 9 17 13 13 11 12 13 14 23 31 22 64 53 56 51 48 52 55 54 54 51 48 50 52 58 62 63 62 65 63 63 73 80 80 76 76 75 73 71 68 69 71
16 27 28 29 10 7 5 14 14 13 10 13 12 17 21 25 29 35 60 69 62 49 48 54 55 54 56 53 50 52 55 60 63 65 69 67 66 64 74 74 73 74 74 70 70 68 66 68 68
28 29 20 26 18 6 5 8 12 14 14 14 11 10 13 26 32 47 62 59 81 58 50 56 55 56 58 56 53 53 56 61 66 70 70 67 67 66 73 74 72 71 70 68 67 66 63 65 69
28 28 33 22 19 14 8 10 16 14 13 12 12 11 11 19 38 59 63 62 85 72 53 54 55 58 60 59 56 53 54 57 62 64 65 64 66 68 71 76 75 72 70 66 63 60 63 67 71
41 30 22 31 24 23 24 21 18 15 17 15 12 12 14 22 65 69 60 65 83 82 61 54 55 59 62 62 60 55 54 54 55 57 59 62 65 67 70 74 77 77 71 63 60 62 65 68 70
23 40 31 25 24 23 19 20 19 17 16 16 15 14 16 48 60 75 89 65 83 83 72 57 58 60 63 65 63 59 56 54 55 54 56 60 64 68 72 74 74 75 70 62 61 64 65 69 70
25 38 33 40 35 28 20 20 20 20 18 16 14 17 16 32 49 59 83 93 72 76 70 67 63 64 65 67 67 63 59 56 55 57 56 58 65 72 77 77 75 72 66 61 63 65 69 72 73
41 39 47 42 33 29 24 23 20 20 20 15 14 18 19 22 46 62 78 89 91 78 73 73 80 79 74 70 69 67 63 60 58 58 58 60 67 73 77 78 77 73 67 61 62 65 70 74 74
41 32 41 33 33 26 25 28 23 23 26 22 19 18 18 41 54 79 88 92 92 87 81 82 88 83 81 74 72 70 69 65 63 61 62 65 76 78 80 82 79 76 71 62 58 63 71 74 75
22 34 29 29 32 33 28 27 25 27 25 26 26 22 21 57 72 65 69 73 92 96 96 97 96 94 96 94 84 82 86 85 78 75 71 74 72 82 91 83 81 77 78 68 60 60 70 76 81
25 21 25 22 26 21 21 20 17 20 21 23 26 23 21 20 25 60 62 66 74 83 93 100 98 97 93 95 99 96 98 98 97 93 85 89 80 76 77 84 94 86 83 89 78 71 81 74 80
29 27 23 25 23 22 20 17 18 17 17 15 15 16 17 18 18 29 52 60 62 73 88 97 97 97 97 98 100 100 98 99 99 95 83 86 92 91 95 94 98 98 97 95 95 94 86 67 69
27 25 26 24 24 22 19 18 16 13 12 12 11 14 16 16 16 19 37 46 58 64 79 95 98 99 100 100 99 99 100 99 100 99 96 84 93 90 87 97 98 98 98 95 95 92 86 79 70
28 28 26 24 23 20 22 18 16 11 11 11 12 12 13 15 17 17 20 44 59 57 67 92 99 99 99 100 100 100 100 99 98 99 99 100 96 98 90 89 98 99 98 98 96 86 90 89 78
30 32 27 21 20 19 16 14 14 12 15 16 16 16 15 14 15 15 17 28 49 57 58 79 95 99 100 99 100 100 97 100 98 99 99 99 99 100 99 94 94 99 94 92 92 93 87 88 83
33 33 26 17 18 16 16 16 13 15 17 17 16 18 16 15 14 15 18 18 31 53 62 65 78 98 100 100 100 95 99 100 100 100 100 98 98 100 100 99 92 91 89 96 97 98 98 98 96
38 24 32 26 20 20 20 19 16 15 19 25 25 22 20 18 15 13 14 18 19 41 62 70 73 86 98 100 100 100 100 100 100 100 100 99 99 99 100 99 92 79 88 92 98 97 99 99 98
27 32 31 33 25 25 29 31 26 25 26 29 28 26 24 21 18 14 14 13 18 32 64 73 73 75 86 95 100 100 100 100 100 99 95 92 94 99 100 98 76 78 89 94 98 98 98 98 99
41 43 40 33 29 37 40 38 33 31 32 32 30 28 26 25 20 17 14 15 18 27 64 76 80 78 86 92 94 94 99 100 100 96 98 98 93 91 98 96 91 82 82 84 90 98 100 100 97
47 51 48 40 35 42 43 43 36 35 35 32 33 32 31 28 24 22 18 15 18 24 53 72 81 80 83 80 83 81 86 90 88 96 97 96 96 90 79 80 81 81 94 98 96 100 100 100 99
50 56 52 53 45 47 50 43 25 22 24 22 23 28 29 28 27 24 20 16 17 27 31 67 76 80 84 78 84 85 95 90 99 98 100 99 96 90 85 87 78 75 88 98 97 100 100 100 100
63 43 46 51 70 75 52 77 34 20 24 24 23 25 26 24 22 23 21 17 20 30 33 52 72 80 88 88 90 88 84 82 88 86 98 99 99 98 99 100 100 91 92 98 99 98 100 100 99
57 48 52 56 71 83 50 71 30 25 30 30 30 35 60 54 26 21 19 18 69 79 55 66 88 88 96 96 96 93 89 88 92 97 98 100 100 100 100 98 100 100 100 100 100 100 100 100 96
45 59 63 68 86 85 54 52 37 44 96 92 75 83 84 66 40 54 66 72 75 80 85 90 92 99 100 100 100 99 98 100 100 100 99 100 100 98 82 65 54 84 90 100 96 99 100 100 98
64 70 69 59 70 44 37 47 39 94 95 97 94 95 92 85 84 80 76 74 76 78 78 80 84 87 93 96 98 98 99 100 100 100 100 100 95 74 55 53 57 55 92 94 89 100 100 100 100
57 84 78 87 60 55 43 56 70 70 95 97 95 99 89 88 83 82 80 77 80 80 80 79 76 77 80 77 78 71 71 81 86 91 92 98 98 96 73 62 46 61 95 84 98 100 100 100 100
97 94 66 91 63 77 54 66 73 61 86 98 98 96 98 90 89 88 87 86 85 83 90 87 81 82 84 87 78 72 71 66 69 64 60 63 70 82 97 100 100 99 100 100 100 100 99 100 100
72 68 89 85 90 78 57 86 88 93 95 96 99 98 99 95 87 86 85 86 88 87 88 88 83 83 85 85 87 88 87 77 78 71 68 58 52 51 55 63 86 100 100 100 100 100 100 100 99
69 64 75 87 88 91 86 93 100 98 98 98 98 99 97 97 94 87 82 86 88 90 89 87 86 87 87 87 88 87 90 86 78 83 77 65 66 71 69 66 72 86 92 99 100 100 100 100 100
53 65 79 93 80 78 86 96 100 100 100 100 98 99 100 100 100 96 89 84 88 91 92 94 92 91 92 92 91 92 92 88 82 80 78 80 80 83 91 89 93 92 96 90 99 100 100 100 100

GFSSGP_925_rhum_132.txt.gz
RH
23 20 21 18 11 7 5 4 4 5 8 8 8 10 10 10 14 16 38 44 52 48 71 56 54 52 48 52 52 56 65 68 68 62 60 61 65 68 65 74 72 70 71 74 72 72 71 70 72
21 20 17 11 8 6 5 4 5 5 5 7 8 9 14 16 14 18 24 50 53 54 73 79 55 53 48 50 50 52 60 68 67 62 60 62 66 66 70 74 73 71 72 72 71 69 68 71 70
26 22 12 12 9 8 6 4 7 8 8 8 8 6 8 11 11 18 45 57 54 59 71 81 56 54 50 49 49 50 57 64 65 62 62 64 67 65 71 74 70 71 72 72 69 66 67 68 69
19 14 12 14 12 8 7 7 8 7 8 9 8 9 7 19 29 38 47 59 56 60 64 88 56 55 52 50 50 51 55 61 64 62 67 67 67 65 70 74 67 69 70 71 70 64 65 66 71
17 13 16 18 15 11 10 10 11 10 9 10 10 9 10 24 25 37 62 61 59 63 65 85 59 57 54 53 51 52 56 62 65 69 68 68 66 67 70 72 67 68 67 67 64 61 63 70 70
15 18 20 19 16 14 12 11 13 13 13 14 14 13 11 21 28 40 64 65 64 70 74 92 65 60 57 56 54 52 56 63 69 71 68 65 66 66 70 70 69 69 66 62 59 61 65 69 70
18 19 21 19 20 19 16 14 17 17 17 15 14 16 12 14 26 38 54 72 77 78 85 90 93 71 62 60 58 54 54 60 66 68 67 61 64 64 70 74 74 69 64 60 61 63 66 68 69
18 20 21 21 21 19 15 17 16 18 18 14 14 17 17 14 19 35 49 62 76 79 82 85 87 90 91 78 63 58 55 57 60 63 64 64 64 67 72 76 74 66 61 61 65 65 68 69 72
18 16 15 14 18 16 15 20 15 14 19 17 18 17 16 16 25 27 30 49 67 76 78 80 81 82 84 87 84 64 59 59 61 65 68 70 83 87 86 91 80 67 61 64 67 69 70 71 76
13 10 8 10 14 17 18 16 13 12 10 11 11 12 17 18 16 16 20 25 43 69 72 73 78 78 78 76 86 88 85 82 84 85 90 82 77 80 82 89 84 73 65 65 69 73 73 78 79
9 10 7 12 16 16 14 12 9 9 10 8 10 13 13 11 12 12 13 18 28 51 64 68 76 77 75 70 80 74 76 76 80 82 83 77 77 79 80 85 94 90 77 76 76 85 80 73 68
16 12 12 10 14 14 12 10 9 8 7 6 7 9 10 9 8 8 9 12 20 37 56 66 70 77 76 64 78 87 77 73 73 76 84 76 79 80 78 77 78 78 79 70 72 70 66 72 76
15 11 13 13 13 12 11 10 9 8 7 8 8 8 8 9 9 9 10 11 13 24 48 60 69 74 75 74 68 77 76 78 72 77 88 78 75 76 77 75 74 76 73 72 72 67 70 74 78
18 17 15 13 13 12 13 10 10 8 7 8 9 9 9 10 10 11 10 10 14 21 35 54 66 74 75 76 70 78 87 77 78 77 95 96 77 76 78 78 76 79 76 75 71 69 69 69 69
21 21 13 12 12 9 10 10 8 7 8 9 8 8 8 9 9 10 11 14 13 17 31 39 64 73 83 87 75 79 80 92 95 92 97 100 89 82 82 84 75 78 85 76 73 74 74 68 69
21 17 14 12 11 10 13 11 7 9 10 10 9 11 14 14 12 10 10 11 12 14 15 34 52 70 83 84 75 72 71 94 97 93 97 98 99 85 90 88 87 73 93 88 81 80 76 73 70
20 12 12 13 13 14 15 17 12 12 13 15 15 15 15 15 14 13 12 11 10 10 14 22 45 64 79 83 78 71 69 84 85 95 95 100 98 97 95 90 98 82 97 97 86 80 79 75 75
16 17 14 15 13 16 20 22 18 16 15 15 15 16 16 16 15 14 14 13 12 9 10 16 36 61 76 87 88 77 70 81 72 75 82 90 100 99 100 92 99 91 78 93 97 93 85 83 79
26 25 21 17 18 30 30 27 23 18 16 16 16 16 16 16 13 14 15 16 16 15 13 14 23 57 73 84 90 81 86 94 79 73 80 77 98 99 100 98 98 99 74 74 97 96 96 94 87
29 29 26 21 24 30 30 32 23 16 13 14 17 20 18 16 15 15 16 17 18 18 16 14 20 49 67 74 79 73 72 70 77 81 78 83 99 99 99 96 76 82 73 83 99 96 98 93 97
30 31 30 32 31 30 35 24 12 15 14 30 40 41 39 36 29 24 18 18 17 19 20 17 16 38 60 65 68 67 66 60 65 66 68 76 84 97 99 99 78 77 89 92 100 99 95 94 98
38 28 34 38 45 46 35 52 24 19 40 56 48 59 66 63 51 42 36 24 20 17 19 18 17 32 54 65 62 66 63 56 54 60 61 66 77 78 89 86 87 91 95 97 100 100 97 87 93
37 37 42 44 47 57 35 43 20 46 81 70 61 69 84 81 68 53 30 33 25 16 18 17 18 27 47 65 64 66 60 57 54 59 62 77 85 79 83 86 97 98 99 99 99 100 98 96 89
36 44 40 43 52 66 33 33 34 75 96 86 84 70 82 94 85 70 69 58 49 49 42 34 30 29 45 70 71 70 65 61 62 81 87 91 95 96 98 99 99 99 82 66 69 82 99 99 97
46 47 41 44 48 34 25 32 78 58 71 94 95 94 93 95 95 86 83 81 77 74 79 87 90 95 99 98 97 89 80 87 90 93 98 100 100 100 99 100 98 72 67 60 53 75 60 100 99
52 54 54 69 44 46 32 35 74 47 48 68 79 88 87 95 96 95 88 87 84 81 75 75 78 84 89 94 94 98 99 99 98 98 100 100 100 98 99 100 93 91 78 64 58 58 58 96 100
86 64 56 76 50 62 32 44 55 46 51 69 95 82 98 95 96 96 93 90 89 88 84 78 72 76 82 84 84 80 83 82 86 86 85 89 91 90 97 93 82 84 87 74 69 90 91 100 99
50 44 58 71 80 65 35 76 79 80 78 75 97 97 99 95 96 96 98 97 91 92 85 83 79 75 75 76 76 72 73 74 75 77 76 78 77 77 77 83 92 98 99 98 99 99 100 100 100
41 51 55 56 59 65 62 89 100 99 98 95 96 99 99 98 97 98 99 99 95 92 90 86 91 85 77 76 75 76 76 76 76 75 76 79 80 75 75 73 72 73 79 94 100 100 100 100 100
44 54 61 79 67 60 71 96 95 100 100 99 95 100 100 100 98 96 97 95 88 89 88 89 91 93 82 78 78 78 80 80 80 80 82 88 78 76 76 74 74 71 69 70 73 85 100 100 100

GFSSGP_925_rhum_138.txt.gz
RH
17 22 20 11 15 11 9 6 2 3 4 6 6 8 10 9 12 27 33 35 34 58 47 46 48 49 46 49 52 55 60 56 55 53 50 48 53 57 65 72 80 78 79 76 73 74 72 73 70
17 23 11 12 16 11 8 4 5 5 5 5 5 8 8 14 15 18 26 36 35 60 57 53 52 51 47 50 53 55 60 57 56 56 52 52 55 59 67 73 74 79 78 75 75 74 73 71 72
15 18 14 15 14 14 9 5 5 4 5 5 5 6 6 15 17 22 31 44 39 57 70 72 56 52 48 50 53 56 58 58 58 58 56 54 59 60 70 72 74 79 79 77 80 73 71 72 70
18 13 13 18 15 10 8 5 5 5 6 5 6 8 8 14 19 24 32 45 42 52 67 74 61 55 51 50 51 57 57 60 60 60 59 57 60 61 70 72 78 75 78 79 75 70 70 68 66
15 15 20 18 14 11 8 7 6 8 9 8 9 10 10 16 18 22 34 51 46 49 61 68 64 58 55 52 50 54 59 63 63 62 61 59 63 61 66 73 77 76 77 75 69 68 67 66 66
17 15 20 19 14 10 8 8 9 11 11 11 11 12 11 13 15 18 33 50 52 60 72 69 67 57 61 56 52 52 57 63 66 64 61 61 64 61 67 70 73 79 77 73 68 66 65 67 66
19 17 19 16 14 12 10 9 10 12 13 13 12 15 11 13 14 14 23 42 58 59 78 77 72 60 62 58 54 53 56 63 67 65 62 63 66 64 70 71 75 79 78 74 67 64 67 68 66
11 14 17 15 14 12 8 9 10 12 12 8 10 16 16 14 10 11 16 25 54 61 68 78 73 71 64 65 61 58 59 64 69 67 64 66 68 69 71 73 75 76 74 74 65 66 67 67 64
7 11 12 11 10 7 7 10 9 8 7 6 7 7 10 9 10 13 12 12 43 58 61 76 72 84 79 77 66 64 63 66 70 71 70 72 73 71 76 73 76 77 76 71 66 67 68 66 64
7 10 10 6 5 6 7 9 8 6 5 5 5 5 5 5 8 11 9 9 10 23 54 64 74 76 79 76 80 69 74 74 78 81 82 79 78 77 87 82 90 77 76 69 67 68 69 66 65
6 8 7 6 5 6 6 7 6 6 6 5 6 6 6 5 6 7 7 7 6 6 10 51 65 70 74 72 75 73 86 84 85 91 92 84 80 86 78 83 88 85 78 72 72 72 72 65 76
7 8 8 6 5 6 7 6 6 6 6 5 5 6 6 7 8 7 7 7 7 8 9 20 52 64 70 69 69 76 76 82 88 91 91 85 82 80 75 85 83 90 80 80 74 76 73 75 68
8 7 6 6 7 6 6 7 7 7 6 6 5 5 7 7 7 7 7 8 8 9 10 10 24 60 67 65 61 67 71 75 77 81 86 87 81 79 79 84 85 85 84 77 75 78 71 71 69
8 9 10 9 8 7 8 7 6 6 5 6 6 6 6 6 7 6 7 9 10 10 9 10 13 50 63 68 59 60 63 67 71 75 82 83 79 78 80 82 80 81 75 68 72 66 70 64 64
14 15 10 9 8 7 7 8 7 5 5 7 7 7 8 8 8 9 10 11 10 11 10 10 9 13 61 65 64 63 58 60 66 67 74 79 76 75 83 78 84 79 70 69 62 57 60 60 62
13 12 16 9 7 7 8 12 7 7 7 8 8 9 10 12 20 31 33 33 32 17 10 11 11 10 35 62 64 64 64 59 63 63 67 78 70 74 80 79 82 80 78 67 66 61 57 56 54
14 16 12 10 6 8 10 11 9 9 10 10 14 26 27 28 28 31 34 37 40 41 36 13 14 12 11 40 63 63 65 63 58 62 63 72 76 70 77 81 80 79 80 76 67 64 68 57 58
18 14 12 10 7 7 10 12 11 10 12 27 28 29 29 30 30 34 40 44 46 48 48 40 20 16 16 13 58 67 66 65 64 64 60 66 80 75 75 79 73 71 77 79 68 71 70 62 57
16 13 12 10 8 13 15 14 11 21 28 32 32 35 35 35 33 38 43 47 53 60 60 59 53 52 17 22 36 65 68 73 69 65 66 69 80 78 79 80 72 72 76 82 76 68 71 65 66
16 17 16 12 11 13 14 14 19 31 33 33 38 42 43 43 43 42 44 49 61 68 66 61 63 67 38 19 21 57 66 74 70 71 71 67 83 71 78 88 73 73 75 80 80 74 80 75 68
16 18 17 17 15 14 15 16 34 30 28 33 37 42 47 50 51 48 48 52 62 70 73 70 71 68 53 21 20 20 62 68 70 72 71 74 85 80 72 87 82 82 75 81 83 72 75 76 77
22 14 19 20 22 28 18 30 18 30 34 39 42 47 53 54 52 52 53 56 59 72 83 80 80 77 71 23 21 23 36 70 70 69 70 72 76 92 87 87 77 88 74 73 78 88 83 74 80
23 19 23 24 27 32 28 26 30 34 46 49 48 50 56 56 57 59 59 62 61 71 87 88 88 84 82 82 28 24 29 50 68 71 70 66 74 83 99 88 84 84 85 68 74 93 85 76 78
21 27 28 28 32 47 29 25 53 49 54 56 54 57 61 60 61 64 71 72 72 76 90 97 93 92 91 94 90 65 32 34 66 66 71 65 74 99 100 96 89 87 84 82 75 83 79 70 77
28 32 38 34 50 51 24 29 53 46 49 58 63 65 67 64 70 76 80 85 84 83 89 98 99 98 96 98 99 96 74 51 48 70 71 65 73 79 97 94 90 95 88 89 78 79 71 70 84
34 33 40 53 39 38 23 45 66 44 45 54 58 65 68 71 74 83 87 94 95 92 95 98 100 100 99 100 100 96 82 84 81 83 68 64 65 76 87 95 93 94 91 99 84 79 76 91 90
39 45 36 42 37 48 32 62 51 49 54 59 70 72 86 78 80 87 89 96 92 94 98 99 99 100 100 99 100 99 97 95 89 94 86 65 63 75 82 93 93 92 96 97 85 78 90 90 87
30 25 38 48 60 46 36 71 75 76 72 72 90 92 86 83 86 90 94 98 96 97 99 100 100 100 100 99 100 100 100 100 95 99 91 99 86 89 92 94 100 100 100 97 92 94 89 90 88
38 40 43 36 41 48 55 79 83 75 75 78 75 96 91 94 96 96 97 96 98 97 100 100 100 100 100 100 100 100 100 100 92 96 97 97 100 91 95 93 96 100 99 98 98 93 88 86 88
24 33 33 55 46 58 71 95 67 65 68 68 73 81 89 88 91 90 92 96 95 97 98 100 100 99 99 100 99 100 100 100 98 93 100 92 96 96 88 84 85 82 75 76 81 87 92 92 92